Race Results for
Schweitzer Mountain NCS #4
Sandpoint, ID
(Event Information)
This is a non-competitive event
Downhill on 07/26/2003

Note: Ranking points are NOT upgrade points. An explanation of ranking points can be found here.


Men - Junior - JR - 1-10

 Place NameCity, StateTime USAC #BibTeam
1 THOMAS HURD   0:24:57.  1038 ROMIC RACI

Men - Junior - JR - 11-12

 Place NameCity, StateTime USAC #BibTeam
1 Matthew Swanguen   San Diego, CA0:07:36. 182998  800 SPY/COLLEG
2 Michael Devlin   Sammamish, WA0:14:03. 163535  482 TITUS

Men - Junior - JR - 13-14

 Place NameCity, StateTime USAC #BibTeam
1 John Swanguen   San Diego0:06:13. 175203  753 SPY/COLLEG
2 Tyler Ceccanti   Lake Tapps, WA0:07:14. 200920  901 SMITH
3 James Shafer   Tacoma, WA0:07:17. 171944  715 JF2
4 JAMES REED   0:07:41.  592 MACHINE HE
5 RYAN WADE   0:07:43.  1097 MACHINE HE
6 TRES WILSON   0:07:46.  920 YOUNG RIDE
7 Cameron Carothers   Aptos, CA0:08:07. 194959  888 MRE RACING
8 Matthew Sinclair   Boulder, CO0:09:06. 193870  634 THE FIX
9 JASON COLCLOUGH   0:10:39. 200229  632 
DNF Stephen Ettinger   Bozeman, MTDNF 189074  809 WENATCHEE
DNF Luciano Worl   Woodinville, WADNF 162267  600 RAD RACING
DNF JUSTIN DIVITO   DNF  817 FUN PIG

Men - Junior - JR - 15-16

 Place NameCity, StateTime USAC #BibTeam
1 Travis Bond   Chattanooga, TN0:05:59. 194663  1012 TOMAC/SUCK
2 Joshua Toland   Santa Cruz, CA0:06:21. 198524  407 
3 JOSEPH SCAMZO   Hood River, OR0:06:34. 163167  1004 DISCOVER B
4 MICHAEL SZEMBER   Yarmouth, ME0:06:43. 110378  526 MACHINE HE
5 Lane Paxton   Missoula, MT0:06:45. 150826  587 BANSHEE BI
6 Brian Mugnier   Phoenix, AZ0:06:49. 179147  509 NO BRAKE T
7 Jack Montgomery   Kirkland, WA0:07:01. 199027  882 SPEEDMETAL
8 JORDAN PORTER   0:07:05.  1071 AZONIC/MAR
9 JOSHUA AUGER   0:07:28.  919 
10 Steven McCullough   Kalispell, MT0:07:35. 198700  494 BMBA
11 Anthony Kollmann   Kalispell, MT0:08:00. 184159  627 
12 RUSTI ORDENBAUGH   0:08:06.  1059 
13 William Heldfond   San Francisco, CA0:09:03. 199860  445 
14 AUSTIN KOBS   0:09:14.  1111 
DNF AARON SHORT   DNF  1009 
DNF Daniel Hultgen   Santa Barbara, CADNF 184908  621 MAXXIS DRA

Men - Junior - JR - 17-18

 Place NameCity, StateTime USAC #BibTeam
1 Bryan Kieffer   Puyallup, WA0:06:13. 100849  776 TEAM PSYCH
2 ADAM CZAPLESKI   0:06:20.  654 AZONIC
3 Gerald Ives   Grand Junction, CO0:06:25. 189544  437 GENE TAYLO
4 ROWAN GRATZ-WEISER   0:06:26.  1049 ADVENTURES
6 Austin Doner   Santa Barbara, CA0:06:34. 198433  1095 
7 JEREMY ANDERSN   0:07:14.  534 
8 TODD JONES   Maple Valley, WA0:07:25. 193417  756 
9 BRAD TIBBS   0:07:40.  922 
10 COREY CHRISTIANSEN   0:07:41.  839 
11 JULIEN MCLAUGHLIN   0:12:51.  1138 U OF I OFF
DNF TYLER ALVARADO   DNF  527 MACHINE HE

Men - Junior - JR - JuniorX

 Place NameCity, StateTime USAC #BibTeam
1 Cody Warren   Alpine, CA0:04:54. 160802  425 HARO-LEE D
2 Cameron Zink   Reno, NV0:05:05. 112265  401 OAKLEY/SUP
3 Cory Gustafson   Vista, CA0:05:09. 162777  805 FOES-AZONI
4 Duncan Riffle   Santa Barbara, CA0:05:10. 146687  869 CHUMBA WUM
5 Daniel Umland   Bakersfield, CA0:05:10. 146235  544 ODI SOUTHR
6 DAVID CAMP   W Bountiful, UT0:05:15. 186465  834 BCD
7 Justin May   Issaquah, WA0:05:17. 173816  890 DOWNHILL Z
8 Garrick Anderson   Poway, CA0:05:19. 182965  510 123BIKES.C
9 Chris Ginzton   Salt Lake City, UT0:05:19. 179149  870 SPORTS PLU
10 Peter Brennen   Berkeley, CA0:05:20. 169936  768 RPM/YETI
11 Evan Turpen   Aptos, CA0:05:20. 175124  511 MR ES RACI
12 Tim Kachel   Aptos, CA0:05:21. 180848  531 PLANET X
13 Cole Bangert   Twin Lakes, CO0:05:24. 177344  516 COLORADO B
14 Jhon Bonham   Garberville Ca0:05:26. 187203  644 AZONIC FOX
15 LUKE STROBEL   Mission Viejo, CA0:05:29. 191052  854 DOWNHILL Z
16 Taylor Sage   Costa Mesa, CA0:05:30. 147629  849 INSANE WAY
17 AVERY BUCH   0:05:31.  875 
18 James Schwanke   Bishop, CA0:05:36. 163326  777 
20 Devin Anderson   Tacoma, WA0:05:37. 173744  799 RAD RACING
21 Collin Carbaugh   Sumner, WA0:05:37. 173745  561 RED RACING
22 Sean McClendon   Pine Valley, CA0:05:38. 159018  514 123BIKES.C
23 Jeff Brines   Littleton, CO0:05:41. 186274  835 BCD
24 Nick Plagman   Denver, CO0:05:44. 191126  924 RPM/YETI
25 Shane May   Issaquah, WA0:05:46. 173817  698 DOWNHILL Z
26 Matt Shirley   Salt Lake City, UT0:05:47. 192945  847 RPM
27 Nathan Hoch   Snoqualmie, WA0:05:52. 171210  647 
28 Toby Citret   Ketchum, ID0:05:55. 197845  588 
29 JAKE PARTIN   0:06:07.  856 RPM/YETI
30 BRIAN HERBERT   Kennebunk, ME0:06:11. 169143  503 AZONIC
31 Michael Pantone   Huntsville, UT0:06:11. 160689  896 BALLISTIC
32 MIKE HARDERER   Concord, CA0:06:11. 190065  904 TEAM PLANE
33 BRIAN WARREN   0:06:13.  993 SINGLETRAC
34 Hunter Mattocks   Bozeman, MT0:06:20. 199030  480 
35 Dom DeMaio   E Brunswick, NJ0:06:21. 188663  677 OAKLEY/HCO
36 Hayden Price   Sandy, UT0:06:27. 163622  889 GO RIDE SM
37 COOPER QUINN   0:06:29.  742 WILSON BAC
39 Hans Eldridge   Kingston, WA0:06:38. 193583  1006 TEAM ESCAP
40 TYLER ACHORN   0:06:44.  842 PREMIER
42 ALAN WORLEY   0:07:06.  678 
43 Cris Winner   Missoula, MT0:07:09. 174246  633 SAFETY TEA
44 RYDER SUTTON   0:09:39.  933 
45 TYLER PARRISH   0:10:11.  1029 DIRT DART
DNF Rand Shoaf   Bend, ORDNF 193872  863 COMPASS CO
DNF Seth Harney   Amarillo, TXDNF 175609  942 BCD.BCD.CO
DNF Evan Robertson   Winthrop, WADNF 147144  626 BICYCLE CE
DNF Scot Purvis   Litchfield Park, AZDNF 141103  427 
DNF ANDREY KOBZOR   DNF  927 

Men - SM - Senior

 Place NameCity, StateTime USAC #BibTeam
1 Duncan Riffle   Santa Barbara, CA04:53.08 146687  339 CHUMBA WUM
2 LUKE STROBEL   Mission Viejo, CA04:58.04 191052  335 DOWNHILL Z
3 Steven Wentz   Costa Mesa, CA05:00.76 148884  337 TEAM TURNE
4 Cameron Zink   Reno, NV05:03.82 112265  312 OAKLEY/SUP
5 Jamas Stiber   Vail, CO05:04.35 14  374 LENZ SPORT
6 JOSHUA CLARK   05:06.18  323 
7 JOE METZ   05:06.70  354 TEAM SWIFT
8 James Ivin   Issaquah, WA05:06.74 181029  331 DOWNHILL Z
9 Kyle Bielenberg   Mesa, AZ05:10.62 76465  326 EVIL BIKES
10 Willy Warren   Glenwood Springs, CO05:11.82 37300  348 KONA BICYC
11 Matthew Fisher   Boulder, CO05:11.89 113183  336 RPM/YETI
12 Damion Smith   Golden, CO05:13.22 161752  367 RPM/YETI
13 TODD OLSEN   05:14.36  338 TREAILER P
14 Billy Owczarski   San Luis Obispo, CA05:16.89 165178  342 FINAL CAUS
15 Ian Odom   Big Bear City, CA05:17.78 153418  369 TEAM BIG B
16 SANJAY SHANBHAG   05:18.10  343 NICOLAI
17 Doug Ewer   Denver, CO05:18.49 182791  362 TEAM BIG C
18 Curtis Beavers   San Jose, CA05:19.67 162922  321 FINAL CAUS
19 Trevor Ellingham   Henderson, NV05:20.04 109354  370 HIGH ROLLE
20 Quinton Spaulding   Henderson, NV05:21.00 165835  301 KHS
21 Kirk Desmond   Novato, CA05:21.09 142104  324 
22 Benedict Treglia   York, PA05:21.75 111141  313 RACERS EDG
23 Moses Mexia   Boise, ID05:22.75 99715  303 STURTOS
24 Daniel Baggs   San Luis Obispo, CA05:23.08 151489  344 TRUVATIV
25 Tige Eakin   Chico, CA05:23.35 172001  310 OLD TOWN B
26 Kim Eakin   University Place, WA05:23.60 113296  308 OLDTOWN BI
27 JP LUTTERLOH   05:23.87  233 BIKE LOFT
28 Lance Canfield   Jackson, WY05:25.04 121750  325 CANFIELD B
29 Zeke Corson   Olympic Valley, CA05:25.94 164461  330 KARPIEL
30 Chris Heath   Denver, CO05:26.43 177708  304 CHUMBA WUM
31 Leif Lorenzen   Croton On Hudson, NY05:26.68 168141  345 IRON HORSE
32 Justin May   Issaquah, WA05:27.31 173816  322 DOWNHILL Z
33 BERT BOYCE   05:28.67  355 
34 Kevin Fowler   Dana Point, CA05:29.74 151154  353 TURNER HON
35 Kirk Adcock   Breckenridge, CO05:30.15 119205  349 GREAT ADVE
36 Cody Warren   Alpine, CA05:30.58 160802  332 HARO-LEE D
37 Avery Buch   Freeport, ME05:31.58 161748  309 EVIL BIKES
38 Deke Williams   Thousand Oaks, CA05:34.16 38332  318 
39 LARS STERNBER   05:34.96  346 GOHUCKYOUR
40 Doug Gormley   Salt Lake City, UT05:35.46 13738  306 
41 Silas Hesterberg   Hailey, ID05:35.69 150751  373 CAFFERTYS
42 Joshua Misevcis   Catskill, NY05:37.04 140892  341 WNDHAM MT
43 Heikki Hall   Durango, CO05:37.57 117452  305 EVILBIKES/
44 Jason Mosley   Port Angeles, WA05:38.36 181225  371 CW RACING/
45 Corey Lewis   Henderson, NV05:38.73 128051  358 HIGH ROLLE
46 Kristopher Baughman   Salt Lake City, UT05:38.88 2921  360 GO RIDE.CO
47 Paul Smith   Hunt Valley, MD05:39.05 131272  368 TREK
48 Marc Ciufolo   St. Louis, MO05:39.11 6954  350 FAST TIMES
49 Bryan Culp   Dublin, CA05:39.28 90704  356 WTB/MARIN
50 Jonathan Canfield   Laguna Beach, CA05:39.56 142925  311 TURNER/HON
51 Cory Gustafson   Vista, CA05:39.63 162777  316 FOES-AZONI
52 JIM KARN   05:43.99  357 
53 Ryan Wilson   Enumclaw, WA05:44.02 174953  327 
54 Peter Shaffer   Salt Lake City, UT05:44.90 151506  359 GO RIDE
55 Matt Vujicevich   San Mateo, CA05:46.03 189478  333 SC VELO
56 Brandon Somers   Clarkston, WA05:48.21 179504  315 AZONIC
57 Thomas Tokarczyk   Durango, CO05:49.65 105533  329 JAMIS/MAXX
58 Richard VanEvery   Carlsbad, CA05:51.51 36434  364 SANTA CRUZ
59 Brian Gerrard   Lake Tapps, WA05:56.53 149251  307 FOX SHOX/H
60 KEITH THOMPSON   05:56.53  363 
61 Bart Bachura   Heber City, UT06:00.06 80492  334 DOD
62 Alex Boday   Fort Collins, CO06:03.96 163689  340 TOMAC AZON
63 KEVIN RYAN   06:05.68  366 DOWNHILL Z
64 Jason Strother   Redmond, WA06:14.73 109596  328 RAPID DESC
65 Mike Tartaglia   Loveland, CO06:27.69 104092  365 TOMAC/SA R
66 Tony Santoro   Las Vegas, NV06:32.69 155222  320 HIGHROLLER
DNF Jacy Shumilak   Lake Elsinore, CADNF 175247  314 IRON HORSE
DNF Robert Dixon   Spokane, WADNF 152417  319 NORTHWEST
DNF Christopher Canfield   Bellingham, WADNF 172199  372 CANFIELD B
DNF RUSS WARRICK   DNF  361 DHZ/WARRIC
DNF Richard Mukai   Issaquah, WADNF 150044  352 ATOM LAB/

Men - EX - Senior - 19-24

 Place NameCity, StateTime USAC #BibTeam
1 Eli Krahenbuhl   Cheyenne, WY0:05:10. 193479  836 ARROW/ MAR
2 CARLIN DUNNE   0:05:19.  1048 OGB
3 Michael Howse   Boulder, CO0:05:26. 179509  893 EXCEL SPOR
4 CARL MARCUM   0:05:27.  906 JOYRIDE
5 Brian Durling   West Sacramento, CA0:05:30. 177722  829 MIKES BIKE
6 REED DOERR   0:05:35.  840 
8 Neal Strobel   Renton, WA0:05:44. 185277  988 DOWNHILL Z
9 Christopher Achorn   Gilmanton, NH0:05:45. 162540  844 PREMIER
10 Landon Taylor   Big Bear Lake, CA0:05:45. 172596  1033 TEAM BIG B
11 Eric Frost   Pocatello, ID0:05:50. 148044  594 INSTANT RE
12 Ryan McLellan   Spokane, WA0:05:51. 152901  807 NORTHWEST
13 Bryan Hyatt   Oklahoma City, OK0:05:55. 176209  885 SUN RINGLE
14 Greg Vogt   Boulder, CO0:05:56. 161706  824 TLD/ THE F
15 Paul Phillips   Whitesboro, NY0:05:57. 135320  958 
16 Peter Stuart   Vashon, WA0:06:02. 181224  700 SPEED META
17 COREY LEMESSENER   0:06:05.  1031 MOUNTAIN C
18 Nate Riffle   Ventura, CA0:06:06. 164883  948 FINISH LIN
19 Mark Milliken   Grand Junction, CO0:06:11. 141733  772 TINY COG R
20 Juan Graziosi   San Jose, CA0:06:14. 144396  711 FINAL CAUS
21 John Reynolds   Denver, CO0:06:16. 129737  908 RPM/YETI
22 TOM OCONNOR   Centreville, VA0:06:20. 148558  1067 BEYOND BIK
23 Chris Carleton   Portland, ME0:06:24. 149927  454 EVIL BIKES
24 Chris Andreasen   Spokane, WA0:06:24. 198709  573 NORTHWEST
25 SAM HENSOLD   0:06:24.  553 
26 DREW SWAYNE   0:06:25.  928 WWU TEAM V
27 Andrew Morin   Santa Barbara, CA0:06:26. 213161  1047 OGB RACING
28 Boe McGee   Bellevue, WA0:06:27. 193517  560 GO-RIDE/AZ
29 SUNNY WILLIS   0:06:29.  826 
30 Jesse Kieffer   Puyallup, WA0:06:30. 100850  751 TEAM PSYCH
31 NATHAN WATERSTREET   0:06:31.  837 
32 Nick Newman   Draper, UT0:06:55. 153793  971 
33 TIM DILLARD-CRICHLOW   0:07:05.  943 BEEF
34 Nic Hood   Spokane, WA0:07:16. 198985  862 ACTIVE ADV
35 Chris Janes   Black Diamond, WA0:07:31. 161105  792 UNIVERSITY
36 Shane Myr   Hayden, ID0:07:40. 176052  1112 MT VIEW CY
37 Otis Elmquist   Kellogg, ID0:08:32. 198689  611 
38 Bryan Crum   Spokane, WA0:08:59. 114586  1051 ACTIVE ADV
DNF George Simoncini   Redwood City, CADNF 190178  827 
DNF Robbie Johnson   Spokane, WADNF 113749  593 
DNF BRIAN WELSHIMER   DNF  913 LOST RIVER
DNF SHAWN BONDE   DNF  1100 

Men - EX - Senior - 25-29

 Place NameCity, StateTime USAC #BibTeam
1 JED COLVIN   0:05:22.  957 WILSON BAC
2 Dan Krenicki   Truckee, CA0:05:33. 180204  696 
3 Chris Just   Newbury Park, CA0:05:34. 159463  558 
4 ZEB TINGEY   0:05:36.  1129 VERTICAL E
5 Mark Christensen   Salt Lake City, UT0:05:37. 163141  959 GUTHRIE BI
6 Clay Morrison   Missoula, MT0:05:44. 189982  793 
7 Isaac Pantone   Huntsville, UT0:05:44. 160247  895 THE BIKE S
8 Philip Vega   Boise, ID0:05:46. 163449  912 JOYRIDE
9 DANTE HARMONY   0:05:53.  442 
10 Todd Koskinen   Durango, CO0:05:54. 91856  891 
11 ERICK ERICKSON   0:06:04.  763 
12 Dave Mitchel   Marysville, WA0:06:04. 198698  595 TIMS BIKE
13 Joel Spackman   Bellingham, WA0:06:06. 120817  651 WWU TEAM V
14 Anthony Cordeiro   Mattapoisett, MA0:06:19. 146198  970 GORGOUS DO
15 SAM ISETT   0:06:20.  921 
16 Andrew Lane   Flagstaff, AZ0:06:22. 180234  1040 ADVENTURES
17 Jake Horsley   Bend, OR0:06:24. 212615  1063 DARK HORSE
18 A Johnson   Renton, WA0:06:36. 181035  935 GOHUCKYOUR
19 RAY PROVENCIO   0:06:39.  964 NICOLAI
20 William Trice   Seattle, WA0:06:40. 163540  1104 AZONIC/MRP
21 Ian Gordon   Seattle, WA0:06:43. 80275  898 DOWNHILL Z
22 Matt Caldwell   Renton, WA0:06:53. 181832  937 SPEEDMETAL
23 Jeremy Wilson   Enumclaw, WA0:07:09. 151203  732 
24 ALEX LOVE   0:07:18.  1062 DARKHORSE
25 Mark Bender   Duvall, WA0:07:44. 93725  620 BICYCLE CE
26 Thor Jones   Winlock, WA0:09:16. 176345  745 BERSERKER
27 Jason Durling   Redwood City, CA0:09:38. 189949  825 
28 Evelio Suarez   Costa Mesa, CA0:12:46. 162000  955 
DNF Chris McIntosh   Willoughby, OHDNF 23567  881 LEVERICHCY
DNF CHRIS MURRAY   DNF  662 SATAN RACI
DNF CRIAG GARBIEL   DNF  871 
DNF Lee Cooper   Jackson, WYDNF 194732  693 TINY COG R
DNF Luc Albert   Milpitas, CADNF 166660  551 PLANET X
DNF Andy Hilliard   S Lake Tahoe, CADNF 147919  640 TEAM JACKA

Men - EX - Master - 30-34

 Place NameCity, StateTime USAC #BibTeam
1 Christiaan Bourdrez   Enumclaw, WA0:05:41. 184070  884 REDHOOK BE
3 Dale Bonn   Ventura, CA0:05:46. 146566  960 
4 Larry Greene   Scottsdale, AZ0:05:56. 112067  956 LANDIS VAL
5 John Evans   North Bend, WA0:05:58. 147239  619 CYCLE PATH
6 Aaron Potter   Phoenix, AZ0:05:58. 127217  566 AZONIC/KEN
7 Todd Byle   Hailey, ID0:05:58. 139507  457 STURTOS
8 AARON WALKER   0:06:04.  404 
9 Erron McCurdy   Santa Cruz, CA0:06:05. 178687  650 
10 CLARK HUDSON   0:06:09.  1032 LENZ SPORT
11 Justin Alvey   Layton, UT0:06:13. 81806  485 GORIDE.COM
12 Matt Palmisano   Colorado Springs, CO0:06:13. 168881  880 
13 William (Bill) Hane   Reno, NV0:06:16. 158355  864 NORTHERN L
14 Josh Boyd   Troy, MT0:06:19. 191553  907 
16 Bryan Camp   Buena Vista, CO0:06:26. 192445  878 YETI RPM
17 Tim Gregory   Moscow, ID0:06:35. 169965  916 AZONIC/MAR
18 Masahiko Shibata   Aurora, CO0:06:37. 185358  872 
19 Rodney James   Lennox, CA0:06:49. 168437  902 TEAM ECLIP
20 Jeffrey Bechtel   Elkton, VA0:06:57. 148756  563 DOWNHILL Z
21 Emmanuel Pons   Salt Lake City, UT0:06:58. 181297  810 
22 JASON WITT   0:07:07.  923 
23 Douglas Clark   Westchester, CA0:07:15. 150064  846 KHS BICYCL
24 Curtis Warren   Madison Hts, MI0:07:25. 179992  930 LANDSLIDE
25 Greg Austin   San Marcos, CA0:07:27. 155987  462 MADCATZ/OR
26 Aaron Gilliland   Loveland, CO0:07:33. 100256  876 SA RACING
DNF ERIC NESS   DNS  1131 

Men - EX - Master - 35-39

 Place NameCity, StateTime USAC #BibTeam
1 Darin Delio   Lahaina, HI0:05:31. 189885  946 NO BRAKES
2 Mike Wadholm   Renton, WA0:05:49. 173734  490 MUKAI
3 Damon Kirchmeier   Farmington, UT0:05:50. 19248  466 GO-RIDE.CO
4 Chuck Valenzuela   Littlerock, CA0:05:55. 156982  852 KHS
5 Kriss Walton   Rhododendron, OR0:05:56. 37146  944 CASCADE DH
6 BRAD WATT   0:06:02.  819 
7 Peter Costain   Whitefish, MT0:06:06. 7868  1137 DIRTY PETE
8 JASON HUDSON   0:06:18.  952 
9 Matthew Sierer   Kirkland, WA0:06:38. 181404  500 RAPID DESC
10 Jeffery Audet   Camano Island, WA0:06:40. 144058  892 CTS EXCAVA
11 Jason Bredbury   Boston, MA0:06:43. 178128  909 PLANET X
12 Joel Leyva   Los Gatos, CA0:07:01. 168323  477 PRIVATEER
13 TODD OLSON   Philadelphia, PA0:07:05. 136220  999 FAT TIRE F
14 ROBBY MEISER   0:08:05.  535 
15 Anthony Howard   Portland, OR0:10:47. 132560  439 
DNF Ryan Sorenson   Grapeview, WADNF 86897  408 
DNF Joe Peterson   Renton, WADNF 27906  729 DIRTWORLD

Men - EX - Master - 40-44

 Place NameCity, StateTime USAC #BibTeam
1 William Kieffer   Puyallup, WA0:06:03. 19075  766 TEAM PSYCH
2 John Swanguen   San Diego, CA0:06:16. 34733  726 COLLEGE CY
3 John Shevenell   Danville, CA0:06:25. 80987  899 WTB SUNRAC
4 Jim Ghahremani   Mission Viejo, CA0:06:38. 43874  879 ODI/SOUTHR
5 Don Jackson   Riverside, CA0:06:43. 17510  545 ODI/SOUTHR
6 Loren Morris   Snoqualmie, WA0:07:08. 43163  432 
7 William Devlin   Sammamish, WA0:07:44. 152899  517 TITUS
8 Jeffrey Haymes   Lacey, WA0:08:11. 116719  887 TEAM MUNKI
9 STEVE PARRISH   0:08:13.  1028 SIRT DART
DNF Rocky Crocker   Wenatchee, WADNF 180676  455 WENATCHEE
DNF Martin Milsted   Seattle, WADNF 168633  760 
DNF KEELY EARLE   DNF  665 DIRTWORLD/

Men - EX - Master - 45-49

 Place NameCity, StateTime USAC #BibTeam
1 Mark Umland   San Bernardino, CA0:06:42. 153031  775 ODI SOUTHR
2 Karl Eberhardt   San Diego, CA0:07:03. 94812  767 REDBULL HA
3 Mike Edward   Ben Lomond, CA0:07:27. 150386  822 ARROW RACI
4 Doug Minor   Nine Mile Falls, WA0:07:48. 191557  559 

Men - EX - Master - 50-54

 Place NameCity, StateTime USAC #BibTeam
1 Scott Smith   Porterville, CA0:06:25. 33283  820 ODI /SOUTH
2 ARNOLD MUKAI   0:07:25.  818 TEAM MUKAI
3 Mike Edward   Ben Lomond, CA0:07:42. 150386  821 ARROW RACI
4 Robert Britschgi   Seattle, WA0:10:15. 4885  458 BARE BONES

Men - EX - Master - 60-64

 Place NameCity, StateTime USAC #BibTeam
1 Michael Vincent   Coeur D Alene, ID0:12:13. 135212  405 VERTICAL E

Men - EX - Master - 65-99

 Place NameCity, StateTime USAC #BibTeam
DNF William Linney   Cheney, WADNF 94070  682 MIDWAY CYC

Men - SP - Senior - 19-24

 Place NameCity, StateTime USAC #BibTeam
1 Shawn Stevenson   Castro Valley, CA0:06:19. 172618  949 CVC/WTB
2 TYLER MCCLENDON   0:06:26.  746 
3 KELLY STEPP   0:06:44.  1002 
4 STEPHEN BRZEZINSKI   E Kingston, NH0:06:48. 200826  983 GRAVITY WA
5 Matt Plude   Bellingham, WA0:06:52. 167413  811 WWU-TEAM V
6 KAI HARWICK   0:07:12.  867 RAPID DESC
7 WES HENRY   0:07:14.  537 
8 JESSY HUMMEL   0:07:23.  998 BERSERKER
9 JAVAN RUARK   0:07:39.  701 
DNF Adam Schaeffer   Seattle, WADNF 200268  1019 WARRICK RA
DNF Lewis Hollingworth   Montara, CADNF 157181  905 PLANET X

Men - SP - Senior - 25-29

 Place NameCity, StateTime USAC #BibTeam
1 Joshua Kemp   Vancouver, WA0:06:35. 214399  1023 GRAVITY FX
2 Timothy Owen   Castro Valley, CA0:06:43. 79234  951 WTB/CVC
3 Gordon Leckie   Vancouver, WA0:06:47. 214400  1022 RISSE
4 CORY BIBBY   0:07:00.  926 SPEED META
5 BRANT NESS   0:07:13.  1003 FRED MEYER
6 Brian Stone   Redmond, WA0:08:02. 169202  762 
7 JASON BERGER   0:09:05.  1090 
8 Kevin Dahlen   Shoreline, WA0:09:13. 175905  603 
9 William Dahlen   Spokane, WA0:10:11. 191552  452 ROLLING SU

Men - SP - Master - 30-34

 Place NameCity, StateTime USAC #BibTeam
1 RICK ESTERLY   0:06:45.  1016 
2 PATRICK WALSH   0:06:47.  1089 TEAM KILLI
3 Doug Park   Coeur D Alene, ID0:06:51. 198975  618 ROLLING SU
4 Mike Garcia   Kirkland, WA0:07:25. 198977  931 
5 EVE JONES   0:07:34.  915 THORS BERS
6 Brad Scott   E Wenatchee, WA0:07:39. 169204  416 RAPID DESC
7 Doug Frei   Inkom, ID0:07:44. 187494  451 
8 Curtis Dunbar   Redmond, WA0:08:52. 173737  954 RAPID DESC
9 TREVOR ADLEN   0:08:58.  1074 
10 CHRIS MCCOLLUM   0:12:45.  1105 LONG CHIRO
11 RICH DENSMORE   0:16:30.  1046 WEST COAST
DNF True Tourtillott   San Jose, CADNF 189900  1043 TRAILHEAD
DNF Cory Hollis   Tacoma, WADNF 186681  710 

Men - SP - Master - 35-39

 Place NameCity, StateTime USAC #BibTeam
1 David Jensen   Queen Creek, AZ0:06:46. 184072  900 NO BRAKES
2 Duane White   Maple Valley, WA0:07:02. 180063  602 RAPID DESC
3 Todd Rutledge   Phoenix, AZ0:07:04. 165659  504 
4 Jon Martin   Arcata, CA0:07:11. 169689  486 REVOULTION
5 David Decker   Newark, CA0:07:24. 131607  554 
6 Mike Macaulay   Whitmore Lake, MI0:08:00. 199940  934 LANDSLIDE
7 Loreto Julian   Seattle, WA0:09:14. 188181  747 TEAM MUKAI
8 Sean Pryce   Beaverton, OR0:10:48. 170436  1005 PRYCE RACI
DNF Mark James   Castro Valley, CADNF 128342  925 MCGRAFF

Men - SP - Master - 40-49

 Place NameCity, StateTime USAC #BibTeam
1 Richard Hathaway   Jupiter, FL0:06:47. 139042  569 RENO HILTO
2 JAMES VENGEL   0:06:53.  985 TEAM MARGA
3 SETH DAWSON   Woodstock, VA0:06:58. 89280  903 NO BRAKES
4 Ron Kagel   Vista, CA0:07:13. 176166  576 
5 Tom Warren   North Bend, WA0:07:19. 179691  991 SINGLETRAC
6 Christopher Achorn   Gilmanton, NH0:07:48. 174024  843 PREMIER PU
7 Dave Reed   Seattle, WA0:08:10. 163525  513 DIRTWORLD.

Men - SP - Master - 50-99

 Place NameCity, StateTime USAC #BibTeam
1 Terry Dickey   Spokane, WA0:11:10. 9444  552 
2 GREG JANES   0:15:39.  781 
DNF MIKE GREGG   DNF  861 ALPINE DES

Men - BG - Senior - 19-24

 Place NameCity, StateTime USAC #BibTeam
1 ANDREW LEESE   0:07:11.  656 TEAM VIKIN
2 MATT HALL   0:07:13.  941 
3 JOHN COURTNEY   0:08:50.  1057 G-FORCE BI
4 PAUL RIESS   0:09:28.  1058 

Men - BG - Senior - 25-29

 Place NameCity, StateTime USAC #BibTeam
DNF TROY MARKS   DNF  798 

Men - BG - Master - 35-39

 Place NameCity, StateTime USAC #BibTeam
1 Karl Browne   Black Diamond, WA0:07:05. 190829  518 SINGLETRAC

Men - BG - Master - 40-49

 Place NameCity, StateTime USAC #BibTeam
1 Brian Crandall   Shoreline, WA0:08:19. 200419  1061 
2 John Casey   Berkeley, CA0:09:40. 135147  790 AZONIC
3 Christopher Holmes   Folsom, CA0:11:22. 16595  917 ROCKNASIUM
4 Vince Beserra   Tustin, CA0:14:38. 194151  483 
DNF RANDY EARLE   DNF  625 

Men - BG - Master - 50-99

 Place NameCity, StateTime USAC #BibTeam
1 ALLAN BEATTIE JR   Snoqualmie, WA0:07:42. 190830  549 SINGLE TRA

Women - Junior - JR - 13-14

 Place NameCity, StateTime USAC #BibTeam
1 Essence Barton   Thousand Oak, CA0:11:48. 179924  974 GIANT
2 Lauren Gardner   Redmond, WA1:16:18. 190842  786 SINGLE TRA

Women - Junior - JR - 17-18

 Place NameCity, StateTime USAC #BibTeam
1 MELISSA WARREN   Scottsdale, AZ0:17:18. 181602  990 SINGLETRAC
2 AMY STAUGH   Redmond, WA0:18:22. 198626  597 

Women - Junior - JR - JuniorX

 Place NameCity, StateTime USAC #BibTeam
1 Jenessa Cornelison   Folsom, CA0:07:08. 189641  918 KARPIEL/WT
2 Katie Holden   Scotts Valley, CA0:07:42. 198434  914 SPEED META
DNF Leana Gerrard   Lake Tapps, WADNF 149252  448 SOBE/CANNO

Women - Pro - Senior

 Place NameCity, StateTime USAC #BibTeam
1 Kathleen (Kathy) Pruitt   Saratoga, CA05:23.58 117831  LUNA
2 SABRINA JONNIER   05:26.85  INTENSE
3 TRACY MOSELEY   05:32.71  KONA CLARK
4 MIO SUEMASA   05:33.14  31 TREK-VOLKS
5 FIONN GRIFFITHS   05:38.47  24 FOES/AZ
6 Melissa Buhl   Chandler, AZ05:43.48 75536  KHS
7 Marla Streb   Baltimore, MD05:47.14 34393  LUNA WOMEN
8 April Lawyer   Bend, OR06:01.95 99639  MAXXIS TIR
9 TAI-LEE MUXLOW   Traverse City, MI06:08.82 102728  25 TIOGA ORAN
10 Dawn Bourque   Campton, NH06:22.03 4403  10 DRIED PLUM
11 GALE DAHLAGER   Kaneohe, HI06:25.96 17480  12 ASTRIX POI
12 Lisa Myklak   Felton, CA06:26.31 182668  39 ASTRIX SPO
13 Kristina Martinez   San Rafael, CA06:33.00 180127  32 RPM-YETI
14 Anka Martin   Laguna Beach, CA06:35.54 172194  13 TURNER/HON
15 Leigh Fiedler   Seattle, WA06:44.91 168640  33 RAPID DESC
16 Holly Kuhn   Inglewood, CA06:57.75 121480  23 ZOO YORK/V
17 Laura Johnson   Portland, OR07:01.45 173612  40 BICYCLES B
18 ALLIE RAU   07:04.88  42 
19 Kristin Powers   Phoenix, AZ07:05.72 138601  43 NO BRAKES
20 Emily Johnston   Broomfield, CO07:19.89 173609  38 VELOCITY S
21 Carrie Cleeton   Corvallis, OR07:33.04 150644  37 FOES/AZONI
22 LAURE POCHMARA   08:11.84  35 RAPID DESC
23 Jessica Vogt   Boulder, CO10:09.43 161705  34 TEAM RPM/Y

Women - EX - Senior - 19-24

 Place NameCity, StateTime USAC #BibTeam
1 Joanna Petterson   Jericho, VT0:07:18. 187041  940 RPM AZONIC
2 Carmen Marin   Glendale, CA0:09:22. 150311  525 AZONIC/ONE

Women - EX - Senior - 25-29

 Place NameCity, StateTime USAC #BibTeam
1 Amelia Colasurdo   Seattle, WA0:07:02. 169690  663 THE DOWNHI
2 Jacqueline Harmony   Tucson, AZ0:07:02. 191051  443 
3 Jennifer Jones   Kelso, WA0:08:20. 180432  755 BERSERKER
4 Adrienne Schneider   Incline Village, NV0:08:22. 176416  467 
5 MICHELLE DOMBROWSKI   0:13:09.  1034 ROCK SHOP
6 H Nielle Hill   Grahamsville, NY0:14:56. 156065  744 RAPID DECE

Women - EX - Master - 30-34

 Place NameCity, StateTime USAC #BibTeam
1 Julie Larsen   Silverthorne, CO0:08:29. 139238  868 WIGWAM/ UL
2 Lisa Reinhard   Phoenix, AZ0:09:29. 157921  612 TEAM OXYGE

Women - EX - Master - 35-39

 Place NameCity, StateTime USAC #BibTeam
1 Denise Wardwell   Boise, ID0:09:24. 169460  1036 JOYRIDE

Women - EX - Master - 40-44

 Place NameCity, StateTime USAC #BibTeam
1 Theresa Seeberg   Salt Lake City, UT0:07:52. 183006  883 BROOKLYN M

Women - EX - Master - 50-54

 Place NameCity, StateTime USAC #BibTeam
DNF Mary Purvis   Litchfield Park, AZDNF 173415  421 

Women - SP - Senior - 19-29

 Place NameCity, StateTime USAC #BibTeam
1 JAMIE LITTLE   0:08:04.  1021 FOES/OAKLE
2 BREE MITCHEL   0:08:40.  624 TIMS BIKE
3 HILLARY HARRISON   0:09:27.  1076 REDHOOK BE

Women - SP - Master - 30-39

 Place NameCity, StateTime USAC #BibTeam
1 SARA JOHNSON   0:10:33.  721 
2 ANGELA MARTENS   0:13:01.  697 DOWNHILL S

Women - BG - Senior - 19-29

 Place NameCity, StateTime USAC #BibTeam
1 Brooke Shore   Bellevue, WA0:11:44. 199612  604 
DNF KAYLA SEDLACEK   DNF  672 

Report missing or incorrect license numbers

Volkswagen
OSMOSpyBonk BreakerCUORESierra NevadaShimanoUSACDF
UCI USA Cycling is the official governing body for all disciplines of competitive cycling in the United States. The 501c3, membership-based organization aims both to achieve sustained success in international cycling competition and to grow competitive cycling in America while delivering an exceptional customer experience.
View Children's Online Privacy Protection Policy
US Olympic Committee